Regional Weather Roundup
Issued by NWS

Home | Current Version | Previous Version | Text Only | Print | Product List | Glossary Off
Versions: 1 2 3 4 5 6 7 8 9 10 11 12 13 14 15 16 17 18 19 20 21 22 23 24 25 26 27 28 29 30 31 32 33 34 35 36 37 38 39 40 41 42 43 44 45 46 47 48 49 50

000
ASUS43 KMKX 260321
RWRWI

WISCONSIN REGIONAL WEATHER ROUNDUP
NATIONAL WEATHER SERVICE MILWAUKEE/SULLIVAN WI
900 PM CST THU DEC 25 2014

NOTE: "FAIR" INDICATES FEW OR NO CLOUDS BELOW 12,000 FEET WITH NO
SIGNIFICANT WEATHER AND/OR OBSTRUCTIONS TO VISIBILITY.

WIZ001-002-006>008-014>016-023>028-260400-
NORTHWEST WISCONSIN

CITY           SKY/WX    TMP DP  RH WIND       PRES   REMARKS
SUPERIOR ARPT  CLOUDY    32  29  90 CALM      29.89R
ASHLAND        CLOUDY    32  29  88 S3        29.89R
HAYWARD        LGT SNOW  31  29  92 CALM      29.88R VSB 3/4
SIREN          LGT SNOW  31  31  99 CALM      29.88S
CUMBERLAND     LGT SNOW  30  30 100 CALM      29.86S
RICE LAKE      CLOUDY    32  31  97 NE3       29.88S FOG
CHETEK         CLOUDY    32  31  96 CALM      29.87S
LADYSMITH      CLOUDY    32  31  97 CALM      29.89R FOG
EAU CLAIRE     CLOUDY    31  28  89 NE3       29.86S
MENOMONIE      CLOUDY    32  30  93 CALM      29.86S FOG
NEW RICHMOND   CLOUDY    32  32 100 NE5       29.86F FOG     WCI  27
OSCEOLA        CLOUDY    32  32 100 CALM      29.89S FOG
$$

WIZ003>005-009-010-017-018-260400-
NORTH CENTRAL WISCONSIN

CITY           SKY/WX    TMP DP  RH WIND       PRES   REMARKS
MANITOWISH WTR LGT SNOW  28  28 100 CALM      29.86S
ARBOR VITAE    LGT SNOW  32  31  95 CALM      29.87R
WOODRUFF       LGT SNOW  32  31  95 CALM      29.87R
RHINELANDER    LGT SNOW  29  28  96 CALM      29.87S FOG
EAGLE RIVER    LGT SNOW  30  30 100 CALM      29.86R
LAND O LAKES   LGT SNOW  30  30  99 CALM      29.87R
PHILLIPS       LGT SNOW  29  29  99 CALM      29.87R
TOMAHAWK       CLOUDY    29  28  95 CALM      29.88R FOG
MEDFORD        MOCLDY    28  26  94 CALM      29.86S
MERRILL        MOCLDY    30  29  97 CALM      29.88R
$$

WIZ029-030-035-036-043>047-260400-
CENTRAL WISCONSIN

CITY           SKY/WX    TMP DP  RH WIND       PRES   REMARKS
WAUSAU         MOCLDY    30  27  88 CALM      29.88R
MOSINEE        CLEAR     30  30 100 E3        29.89R
MARSHFIELD     MOCLDY    30  27  88 E6        29.86S WCI  24
STEVENS POINT  MOCLDY    28  27  96 CALM      29.89R
WAUPACA        CLOUDY    31  30  95 CALM      29.91R FOG
WAUTOMA        CLOUDY    29  29 100 CALM      29.90R
WISC RAPIDS    MOCLDY    29  26  89 CALM      29.89R
CAMP DOUGLAS   CLOUDY    31  31 100 SE5       29.87S WCI  26
$$

WIZ011>013-019>022-031-037>040-048>050-260400-
NORTHEAST WISCONSIN

CITY           SKY/WX    TMP DP  RH WIND       PRES   REMARKS
ANTIGO         CLOUDY    28  27  96 CALM      29.87S
SHAWANO        CLOUDY    32  31  95 CALM      29.92R FOG
OCONTO         FAIR      30  30 100 CALM      29.92S
STURGEON BAY   MOCLDY    34  28  80 S5        29.94S WCI  30
GREEN BAY      CLOUDY    32  31  96 CALM      29.91S
MANITOWOC      CLOUDY    36  32  85 S5        29.93R WCI  32
APPLETON       PTCLDY    32  32 100 CALM      29.91R
CLINTONVILLE   CLOUDY    30  30 100 CALM      29.91R
OSHKOSH        CLOUDY    37  32  82 SW9       29.91R WCI  30
$$

WIZ032>034-041-042-053>061-260400-
SOUTHWEST WISCONSIN

CITY           SKY/WX    TMP DP  RH WIND       PRES   REMARKS
LA CROSSE      CLOUDY    31  29  92 CALM      29.86R
SPARTA         CLOUDY    29  29  99 CALM      29.87S
VIROQUA        CLOUDY    36  34  90 S10       29.85R WCI  29
BOSCOBEL       MOCLDY    33  29  85 CALM      29.89R
PRAIRIE DU CHI MOCLDY    42  31  66 SE3       29.87R
PLATTEVILLE    PTCLDY    38  33  81 S13       29.90R WCI  30
$$

WIZ056-057-062-063-064-067-068-260400-
SOUTH CENTRAL WISCONSIN

CITY           SKY/WX    TMP DP  RH WIND       PRES   REMARKS
REEDSBURG      CLOUDY    37  32  81 S8        29.88R WCI  31
BARABOO/DELLS  CLOUDY    38  32  78 S12       29.88R WCI  31
LONE ROCK      CLOUDY    44  32  62 VRB3      29.90R
MINERAL POINT  MOCLDY    37  32  81 S9        29.89R WCI  31
MADISON        CLOUDY    40  33  76 S12       29.91R WCI  33
MIDDLETON      CLOUDY    40  32  75 S8        29.91R WCI  34
WATERTOWN      CLOUDY    38  35  89 S10G16    29.92R WCI  31
MONROE         CLOUDY    37  34  87 S17       29.90R WCI  28
JANESVILLE     FAIR      41  34  75 S13G18    29.93R
$$

WIZ051-052-058>065-066-070>072-260400-
SOUTHEAST WISCONSIN

CITY           SKY/WX    TMP DP  RH WIND       PRES   REMARKS
MILWAUKEE      MOCLDY    40  33  76 S12       29.95S WCI  33
WAUKESHA       MOCLDY    36  32  87 S7        29.95R WCI  30
MILWAUKEE/TIMM PTCLDY    37  32  81 S14       29.94S WCI  29
RACINE         CLOUDY    41  34  76 S13       29.97S
BURLINGTON     MOCLDY    37  33  84 S9        29.94S WCI  31
KENOSHA        CLOUDY    41  34  76 S15G22    29.95S
FOND DU LAC    CLOUDY    38  32  79 S15       29.91R WCI  29
SHEBOYGAN      MOCLDY    35  31  85 S8        29.92R WCI  29
WEST BEND      PTCLDY    37  32  81 S9        29.92R WCI  31
JUNEAU         CLOUDY    37  33  86 S13       29.93R WCI  28
$$

LSZ147-162-260400-
LAKE SUPERIOR

STATION/POSITION TIME  TEMP    WIND        PRES    WAVE
                       AIR SEA DIR/SP/G            HT/PER
                 (UTC) (F)     (DEG/KT/KT) (MB)    (FT/S)
DEVILS ISLAND    0300   35     320/  9/ 11 1012.6R
PORT WING        0200   33     210/  2/  4 1011.9R
SAXON HARBOR     0200   33     190/  2/  3 1012.2R
$$

LMZ867-665-643>646-260400-
LAKE MICHIGAN

STATION/POSITION TIME  TEMP    WIND        PRES    WAVE
                       AIR SEA DIR/SP/G            HT/PER
                 (UTC) (F)     (DEG/KT/KT) (MB)    (FT/S)
CHAMBERS ISLAND  0200   35     190/  5/  8 1013.5R
NORTHPORT PIER   0300   33     180/  2/  3 1013.9R
SISTER BAY       0228          180/  3/  6   N/A
ALGOMA LAKESHORE 0215             CALM       N/A
KEWAUNEE LAKESHO 0300   36     180/  1/  3 1012.6S
SHEBOYGAN LAKESH 0300   40 37  200/ 15/ 20 1013.9R
PORT WASHINGTON  0240   40     210/  8/ 12 1014.2S
MILWAUKEE LAKESH 0300   41     210/ 12/ 17   N/A
KENOSHA   LAKESH 0300   42     200/ 14/ 18 1014.6S
$$

TC  - TEMPERATURE IN CELSIUS
VSB - VISIBILITY IN STATUTE MILES
WCI - WIND CHILL INDEX
HX  - HEAT INDEX




USA.gov is the U.S. government's official web portal to all federal, state and local government web resources and services.